• In Czech Republic
  • List of Countries
  • For 7 days
  • Water Temperature
  • Satellite Maps
  • Weather Map
  • Weather Widgets
  • user-avatar
    Login

    Hourly Weather Kankan

    Today, 20 October, Saturday

    Time Temperature Precipitation Wind Pressure Humidity
    00:00 +24°C° 0 mm 1 mps 683 mmHg 37%
    01:00 +23°C° 0 mm 1 mps 683 mmHg 38%
    02:00 +23°C° 0 mm 1 mps 683 mmHg 38%
    03:00 +22°C° 0 mm 1 mps 682 mmHg 39%
    04:00 +20°C° 0 mm 0 mps 682 mmHg 39%
    05:00 +22°C° 0 mm 1 mps 683 mmHg 40%
    06:00 +22°C° 0 mm 1 mps 683 mmHg 41%
    07:00 +22°C° 0 mm 1 mps 683 mmHg 42%
    08:00 +25°C° 0 mm 1 mps 684 mmHg 35%
    09:00 +29°C° 0 mm 2 mps 685 mmHg 28%
    10:00 +33°C° 0 mm 3 mps 686 mmHg 20%
    11:00 +34°C° 0 mm 3 mps 686 mmHg 18%
    12:00 +35°C° 0 mm 3 mps 686 mmHg 17%
    13:00 +36°C° 0 mm 4 mps 685 mmHg 15%
    14:00 +36°C° 0 mm 3 mps 684 mmHg 16%
    15:00 +36°C° 0 mm 3 mps 684 mmHg 16%
    16:00 +36°C° 0 mm 3 mps 683 mmHg 17%
    17:00 +32°C° 0 mm 2 mps 683 mmHg 20%
    18:00 +30°C° 0 mm 2 mps 683 mmHg 22%
    19:00 +27°C° 0 mm 1 mps 683 mmHg 25%
    20:00 +27°C° 0 mm 1 mps 683 mmHg 26%
    21:00 +26°C° 0 mm 1 mps 683 mmHg 28%
    22:00 +25°C° 0 mm 1 mps 684 mmHg 29%
    23:00 +25°C° 0 mm 1 mps 683 mmHg 30%

    Tomorrow, 21 October, Sunday

    Time Temperature Precipitation Wind Pressure Humidity
    00:00 +25°C° 0 mm 1 mps 683 mmHg 32%
    01:00 +24°C° 0 mm 1 mps 683 mmHg 33%
    02:00 +24°C° 0 mm 1 mps 683 mmHg 34%
    03:00 +23°C° 0 mm 1 mps 683 mmHg 34%
    04:00 +23°C° 0 mm 1 mps 682 mmHg 35%
    05:00 +23°C° 0 mm 1 mps 683 mmHg 36%
    06:00 +23°C° 0 mm 1 mps 683 mmHg 37%
    07:00 +23°C° 0 mm 1 mps 683 mmHg 38%
    08:00 +26°C° 0 mm 2 mps 684 mmHg 32%
    09:00 +30°C° 0 mm 3 mps 685 mmHg 25%
    10:00 +34°C° 0 mm 4 mps 686 mmHg 18%
    11:00 +35°C° 0 mm 4 mps 685 mmHg 17%
    12:00 +36°C° 0 mm 4 mps 685 mmHg 17%
    13:00 +37°C° 0 mm 4 mps 684 mmHg 16%
    14:00 +37°C° 0 mm 4 mps 684 mmHg 17%
    15:00 +37°C° 0 mm 3 mps 683 mmHg 17%
    16:00 +37°C° 0 mm 3 mps 683 mmHg 18%
    17:00 +34°C° 0 mm 3 mps 682 mmHg 21%
    18:00 +31°C° 0 mm 2 mps 682 mmHg 25%
    19:00 +28°C° 0 mm 1 mps 682 mmHg 28%
    20:00 +28°C° 0 mm 1 mps 683 mmHg 30%
    21:00 +27°C° 0 mm 1 mps 683 mmHg 32%
    22:00 +26°C° 0 mm 1 mps 684 mmHg 33%
    23:00 +26°C° 0 mm 1 mps 684 mmHg 37%

    Day after tomorrow, 22 October, Monday

    Time Temperature Precipitation Wind Pressure Humidity
    00:00 +25°C° 0 mm 1 mps 683 mmHg 40%
    01:00 +25°C° 0 mm 1 mps 683 mmHg 43%
    02:00 +24°C° 0 mm 1 mps 683 mmHg 46%
    03:00 +24°C° 0 mm 1 mps 683 mmHg 48%
    04:00 +23°C° 0 mm 1 mps 682 mmHg 50%
    05:00 +23°C° 0 mm 1 mps 683 mmHg 53%
    06:00 +23°C° 0 mm 1 mps 683 mmHg 55%
    07:00 +23°C° 0 mm 1 mps 683 mmHg 58%
    08:00 +27°C° 0 mm 1 mps 684 mmHg 49%
    09:00 +30°C° 0 mm 1 mps 685 mmHg 40%
    10:00 +33°C° 0 mm 1 mps 686 mmHg 30%
    11:00 +35°C° 0 mm 2 mps 686 mmHg 26%
    12:00 +36°C° 0 mm 3 mps 685 mmHg 21%
    13:00 +38°C° 0 mm 4 mps 684 mmHg 16%
    14:00 +37°C° 0 mm 4 mps 684 mmHg 16%
    15:00 +37°C° 0 mm 3 mps 683 mmHg 16%
    16:00 +37°C° 0 mm 3 mps 683 mmHg 17%
    17:00 +34°C° 0 mm 3 mps 683 mmHg 19%
    18:00 +31°C° 0 mm 2 mps 682 mmHg 22%
    19:00 +28°C° 0 mm 1 mps 682 mmHg 25%
    20:00 +28°C° 0 mm 1 mps 683 mmHg 30%
    21:00 +27°C° 0 mm 1 mps 683 mmHg 36%
    22:00 +26°C° 0 mm 2 mps 684 mmHg 41%
    23:00 +25°C° 0 mm 2 mps 683 mmHg 50%

    23 October, Tuesday

    Time Temperature Precipitation Wind Pressure Humidity
    00:00 +25°C° 0 mm 2 mps 683 mmHg 58%
    01:00 +24°C° 0 mm 2 mps 683 mmHg 67%
    02:00 +24°C° 0 mm 2 mps 683 mmHg 72%
    03:00 +23°C° 0 mm 2 mps 683 mmHg 77%
    04:00 +23°C° 0 mm 1 mps 683 mmHg 83%
    05:00 +23°C° 0 mm 1 mps 683 mmHg 83%
    06:00 +23°C° 0 mm 1 mps 684 mmHg 84%
    07:00 +23°C° 0 mm 2 mps 684 mmHg 85%
    08:00 +26°C° 0 mm 1 mps 685 mmHg 73%
    09:00 +29°C° 0 mm 1 mps 686 mmHg 60%
    10:00 +32°C° 0 mm 1 mps 687 mmHg 48%
    11:00 +33°C° 0 mm 1 mps 686 mmHg 41%
    12:00 +36°C° 0 mm 2 mps 686 mmHg 33%
    13:00 +37°C° 0 mm 2 mps 685 mmHg 25%
    14:00 +37°C° 0 mm 2 mps 684 mmHg 24%
    15:00 +37°C° 0 mm 2 mps 684 mmHg 23%
    16:00 +37°C° 0 mm 3 mps 683 mmHg 22%
    17:00 +34°C° 0 mm 2 mps 683 mmHg 26%
    18:00 +31°C° 0 mm 1 mps 683 mmHg 29%
    19:00 +29°C° 0 mm 1 mps 683 mmHg 32%
    20:00 +28°C° 0 mm 1 mps 683 mmHg 36%
    21:00 +28°C° 0 mm 1 mps 684 mmHg 39%
    22:00 +27°C° 0 mm 1 mps 684 mmHg 42%
    23:00 +27°C° 0 mm 1 mps 684 mmHg 48%

    24 October, Wednesday

    Time Temperature Precipitation Wind Pressure Humidity
    00:00 +26°C° 0 mm 1 mps 684 mmHg 54%
    01:00 +25°C° 0 mm 2 mps 683 mmHg 60%
    02:00 +25°C° 0 mm 2 mps 683 mmHg 64%
    03:00 +24°C° 0 mm 1 mps 683 mmHg 69%
    04:00 +24°C° 0 mm 1 mps 683 mmHg 74%
    05:00 +24°C° 0 mm 1 mps 684 mmHg 76%
    06:00 +24°C° 0 mm 1 mps 684 mmHg 77%
    07:00 +24°C° 0 mm 1 mps 685 mmHg 79%
    08:00 +27°C° 0 mm 1 mps 685 mmHg 67%
    09:00 +30°C° 0 mm 1 mps 686 mmHg 55%
    10:00 +33°C° 0 mm 1 mps 687 mmHg 44%
    11:00 +34°C° 0 mm 1 mps 686 mmHg 37%
    12:00 +36°C° 0 mm 2 mps 686 mmHg 30%
    13:00 +38°C° 0 mm 2 mps 685 mmHg 23%
    14:00 +37°C° 0 mm 2 mps 684 mmHg 22%
    15:00 +37°C° 0 mm 2 mps 684 mmHg 22%
    16:00 +37°C° 0 mm 2 mps 683 mmHg 21%
    17:00 +35°C° 0 mm 2 mps 683 mmHg 27%
    18:00 +32°C° 0 mm 2 mps 683 mmHg 33%
    19:00 +29°C° 0 mm 1 mps 683 mmHg 39%
    20:00 +29°C° 0 mm 2 mps 684 mmHg 46%
    21:00 +28°C° 0 mm 2 mps 684 mmHg 52%
    22:00 +27°C° 0 mm 2 mps 684 mmHg 59%
    23:00 +26°C° 0 mm 2 mps 684 mmHg 64%

    25 October, Thursday

    Time Temperature Precipitation Wind Pressure Humidity
    00:00 +25°C° 0 mm 2 mps 684 mmHg 68%
    01:00 +25°C° 0 mm 2 mps 683 mmHg 73%
    02:00 +24°C° 0 mm 2 mps 683 mmHg 74%
    03:00 +24°C° 0 mm 2 mps 683 mmHg 75%
    04:00 +24°C° 0 mm 1 mps 683 mmHg 76%
    05:00 +24°C° 0 mm 1 mps 683 mmHg 76%
    06:00 +24°C° 0 mm 1 mps 684 mmHg 76%
    07:00 +24°C° 0 mm 1 mps 684 mmHg 77%
    08:00 +27°C° 0 mm 1 mps 685 mmHg 66%
    09:00 +30°C° 0 mm 1 mps 685 mmHg 55%
    10:00 +33°C° 0 mm 1 mps 686 mmHg 44%
    11:00 +34°C° 0 mm 1 mps 685 mmHg 38%
    12:00 +36°C° 0 mm 2 mps 685 mmHg 31%
    13:00 +38°C° 0 mm 2 mps 684 mmHg 24%
    14:00 +37°C° 0 mm 2 mps 683 mmHg 26%
    15:00 +36°C° 0 mm 2 mps 683 mmHg 28%
    16:00 +35°C° 0 mm 2 mps 682 mmHg 30%
    17:00 +34°C° 0 mm 2 mps 683 mmHg 35%
    18:00 +31°C° 0 mm 2 mps 683 mmHg 41%
    19:00 +30°C° 0 mm 2 mps 683 mmHg 46%
    20:00 +29°C° 0.3 mm 2 mps 683 mmHg 52%
    21:00 +27°C° 0.3 mm 2 mps 683 mmHg 58%
    22:00 +26°C° 0.3 mm 2 mps 683 mmHg 64%
    23:00 +26°C° 0.1 mm 2 mps 683 mmHg 67%
    Show more